BNY0002 LEVC-LEZL

Flight info

Callsign BNY0002
Flight time 1h 0m
Altitude 23000
Route ASTRO M985 XEBAR/N0470F410 M985 MAMIS
Aircraft A359/H-SDE2E3GHIJ3J4J5LM1ORWXY/LB1D1

Departure

Time 2026-04-20 22:05
Airport Valencia Airport (LEVC)

Arrival

Time 2026-04-20 23:06
Airport Seville Airport (LEZL)
Time Latitude Longitude Altitude Speed Heading
2026-04-20 22:05 39.30758 -0.54027 16887 ft 347 kts 289°
2026-04-20 22:05 39.31630 -0.56945 17522 ft 350 kts 291°
2026-04-20 22:06 39.32635 -0.59825 18157 ft 354 kts 295°
2026-04-20 22:06 39.33505 -0.62801 18704 ft 356 kts 282°
2026-04-20 22:06 39.33673 -0.65988 19257 ft 358 kts 264°
2026-04-20 22:06 39.33033 -0.69086 19818 ft 360 kts 247°
2026-04-20 22:07 39.31965 -0.71971 20366 ft 362 kts 243°
2026-04-20 22:07 39.30820 -0.74876 20927 ft 364 kts 243°
2026-04-20 22:07 39.29670 -0.77805 21505 ft 367 kts 243°
2026-04-20 22:07 39.28520 -0.80750 22059 ft 369 kts 243°
2026-04-20 22:08 39.27365 -0.83720 22602 ft 372 kts 243°
2026-04-20 22:08 39.26044 -0.86601 23132 ft 374 kts 235°
2026-04-20 22:08 39.24491 -0.89303 23671 ft 376 kts 233°
2026-04-20 22:08 39.22893 -0.91984 24114 ft 379 kts 233°
2026-04-20 22:09 39.21277 -0.94692 24586 ft 382 kts 233°
2026-04-20 22:09 39.19658 -0.97412 25050 ft 384 kts 233°
2026-04-20 22:09 39.18047 -1.00120 25506 ft 387 kts 233°
2026-04-20 22:09 39.16406 -1.02878 26006 ft 389 kts 233°
2026-04-20 22:10 39.14752 -1.05660 26510 ft 392 kts 233°
2026-04-20 22:10 39.13089 -1.08453 27035 ft 395 kts 233°
2026-04-20 22:10 39.11413 -1.11267 27563 ft 398 kts 233°
2026-04-20 22:10 39.09721 -1.14104 28135 ft 400 kts 233°
2026-04-20 22:11 39.08022 -1.16953 28662 ft 404 kts 233°
2026-04-20 22:11 39.06298 -1.19840 29221 ft 408 kts 233°
2026-04-20 22:11 39.04585 -1.22707 29795 ft 411 kts 233°
2026-04-20 22:11 39.02835 -1.25630 30343 ft 415 kts 233°
2026-04-20 22:12 39.01072 -1.28582 30869 ft 417 kts 233°
2026-04-20 22:12 38.99300 -1.31543 31423 ft 419 kts 233°
2026-04-20 22:12 38.97513 -1.34522 31963 ft 421 kts 233°
2026-04-20 22:12 38.95718 -1.37509 32487 ft 424 kts 232°
2026-04-20 22:13 38.93911 -1.40513 33023 ft 425 kts 232°
2026-04-20 22:13 38.92110 -1.43504 33769 ft 422 kts 232°
2026-04-20 22:13 38.90321 -1.46474 34467 ft 419 kts 232°
2026-04-20 22:13 38.88562 -1.49392 35051 ft 418 kts 232°
2026-04-20 22:14 38.86785 -1.52337 35524 ft 419 kts 233°
2026-04-20 22:14 38.84998 -1.55298 36041 ft 419 kts 233°
2026-04-20 22:14 38.83212 -1.58254 36586 ft 418 kts 233°
2026-04-20 22:14 38.81435 -1.61192 37151 ft 417 kts 233°
2026-04-20 22:15 38.79661 -1.64123 37692 ft 416 kts 233°
2026-04-20 22:15 38.77889 -1.67046 38243 ft 414 kts 233°
2026-04-20 22:15 38.76124 -1.69956 38741 ft 413 kts 233°
2026-04-20 22:15 38.74361 -1.72861 39146 ft 413 kts 233°
2026-04-20 22:16 38.72483 -1.75951 39521 ft 413 kts 233°
2026-04-20 22:16 38.70859 -1.78627 39838 ft 413 kts 233°
2026-04-20 22:16 38.69095 -1.81528 40180 ft 413 kts 233°
2026-04-20 22:16 38.67328 -1.84426 40526 ft 413 kts 233°
2026-04-20 22:17 38.65559 -1.87322 40851 ft 414 kts 233°
2026-04-20 22:17 38.63777 -1.90237 41000 ft 418 kts 233°
2026-04-20 22:17 38.61972 -1.93190 41015 ft 425 kts 232°
2026-04-20 22:18 38.58320 -1.99155 41010 ft 425 kts 232°
2026-04-20 22:18 38.54698 -2.05060 41011 ft 425 kts 232°
2026-04-20 22:19 38.51049 -2.11004 41010 ft 425 kts 233°
2026-04-20 22:19 38.47401 -2.16939 41012 ft 425 kts 232°
2026-04-20 22:20 38.43746 -2.22866 41018 ft 425 kts 232°
2026-04-20 22:20 38.40109 -2.28755 41017 ft 425 kts 232°
2026-04-20 22:21 38.36428 -2.34654 41015 ft 425 kts 230°
2026-04-20 22:21 38.32409 -2.40183 41024 ft 426 kts 227°
2026-04-20 22:22 38.28345 -2.45660 41018 ft 425 kts 227°
2026-04-20 22:22 38.24275 -2.51123 41021 ft 425 kts 227°
2026-04-20 22:23 38.20228 -2.56543 41021 ft 425 kts 227°
2026-04-20 22:23 38.16147 -2.61998 41001 ft 425 kts 227°
2026-04-20 22:24 38.12069 -2.67438 41023 ft 425 kts 227°
2026-04-20 22:24 38.07996 -2.72862 41017 ft 424 kts 227°
2026-04-20 22:25 38.03928 -2.78272 41007 ft 423 kts 227°
2026-04-20 22:25 37.99901 -2.83644 41006 ft 423 kts 228°
2026-04-20 22:26 37.96638 -2.89809 41008 ft 423 kts 245°
2026-04-20 22:26 37.95107 -2.96981 40994 ft 425 kts 263°
2026-04-20 22:27 37.94526 -3.08207 40986 ft 426 kts 262°
2026-04-20 22:27 37.94068 -3.15619 40980 ft 425 kts 260°
2026-04-20 22:28 37.93581 -3.23104 40971 ft 426 kts 258°
2026-04-20 22:28 37.93118 -3.30598 40975 ft 427 kts 259°
2026-04-20 22:29 37.92706 -3.38104 40966 ft 427 kts 259°
2026-04-20 22:29 37.92311 -3.45560 40970 ft 427 kts 259°
2026-04-20 22:30 37.91915 -3.53068 40960 ft 427 kts 259°
2026-04-20 22:30 37.91512 -3.60573 40671 ft 426 kts 259°
2026-04-20 22:31 37.91309 -3.64310 40015 ft 424 kts 259°
2026-04-20 22:31 37.91114 -3.68021 39450 ft 420 kts 259°
2026-04-20 22:31 37.90919 -3.71654 38829 ft 418 kts 259°
2026-04-20 22:31 37.90719 -3.75320 38070 ft 417 kts 259°
2026-04-20 22:32 37.90514 -3.78988 37208 ft 418 kts 259°
2026-04-20 22:32 37.90307 -3.82664 36332 ft 420 kts 259°
2026-04-20 22:32 37.90096 -3.86363 35395 ft 423 kts 259°
2026-04-20 22:32 37.89880 -3.90089 34449 ft 426 kts 259°
2026-04-20 22:33 37.89660 -3.93841 33463 ft 430 kts 259°
2026-04-20 22:33 37.89437 -3.97627 32454 ft 432 kts 259°
2026-04-20 22:33 37.89216 -4.01361 31553 ft 431 kts 259°
2026-04-20 22:33 37.88994 -4.05135 30803 ft 428 kts 260°
2026-04-20 22:34 37.88776 -4.08866 30098 ft 423 kts 260°
2026-04-20 22:34 37.88561 -4.12554 29293 ft 418 kts 260°
2026-04-20 22:34 37.88349 -4.16205 28483 ft 414 kts 260°
2026-04-20 22:34 37.88139 -4.19822 27708 ft 409 kts 260°
2026-04-20 22:35 37.87932 -4.23394 26969 ft 405 kts 260°
2026-04-20 22:35 37.87726 -4.26923 26251 ft 400 kts 260°
2026-04-20 22:35 37.87521 -4.30422 25540 ft 396 kts 260°
2026-04-20 22:35 37.87321 -4.33834 24863 ft 392 kts 260°
2026-04-20 22:36 37.87120 -4.37258 24163 ft 388 kts 260°
2026-04-20 22:36 37.86920 -4.40649 23476 ft 385 kts 260°
2026-04-20 22:36 37.86720 -4.44009 22667 ft 381 kts 260°
2026-04-20 22:36 37.86523 -4.47338 21893 ft 377 kts 260°
2026-04-20 22:37 37.86327 -4.50628 21122 ft 373 kts 260°
2026-04-20 22:37 37.86132 -4.53884 20410 ft 369 kts 260°
2026-04-20 22:37 37.85938 -4.57112 19692 ft 366 kts 260°
2026-04-20 22:37 37.85746 -4.60301 18999 ft 362 kts 260°
2026-04-20 22:38 37.85556 -4.63425 18322 ft 359 kts 260°
2026-04-20 22:38 37.85365 -4.66561 17565 ft 356 kts 259°
2026-04-20 22:38 37.85181 -4.69662 17075 ft 353 kts 259°
2026-04-20 22:38 37.84987 -4.72757 16662 ft 353 kts 259°
2026-04-20 22:39 37.84794 -4.75846 16306 ft 352 kts 259°
2026-04-20 22:39 37.84602 -4.78926 15958 ft 350 kts 259°
2026-04-20 22:39 37.84411 -4.81988 15598 ft 349 kts 259°
2026-04-20 22:39 37.84171 -4.85034 15263 ft 345 kts 256°
2026-04-20 22:40 37.83756 -4.88007 14933 ft 343 kts 253°
2026-04-20 22:40 37.83300 -4.90929 14589 ft 343 kts 253°
2026-04-20 22:40 37.82836 -4.93893 14255 ft 342 kts 253°
2026-04-20 22:40 37.82379 -4.96844 13940 ft 342 kts 252°
2026-04-20 22:41 37.81920 -4.99789 13595 ft 342 kts 252°
2026-04-20 22:41 37.81461 -5.02735 13226 ft 340 kts 253°
2026-04-20 22:41 37.81007 -5.05663 12879 ft 339 kts 253°
2026-04-20 22:41 37.80552 -5.08576 12508 ft 337 kts 253°
2026-04-20 22:42 37.80100 -5.11476 12159 ft 335 kts 253°
2026-04-20 22:42 37.79660 -5.14318 11819 ft 333 kts 253°
2026-04-20 22:42 37.79211 -5.17180 11471 ft 331 kts 253°
2026-04-20 22:42 37.78763 -5.20033 11119 ft 330 kts 254°
2026-04-20 22:43 37.78323 -5.22867 10949 ft 327 kts 254°
2026-04-20 22:43 37.77900 -5.25603 10842 ft 306 kts 253°
2026-04-20 22:43 37.77514 -5.28170 10721 ft 291 kts 254°
2026-04-20 22:43 37.77134 -5.30665 10643 ft 289 kts 253°
2026-04-20 22:44 37.76751 -5.33160 10542 ft 289 kts 254°
2026-04-20 22:44 37.76367 -5.35646 10439 ft 289 kts 253°
2026-04-20 22:44 37.75975 -5.38137 10346 ft 288 kts 253°
2026-04-20 22:44 37.75581 -5.40621 10262 ft 288 kts 253°
2026-04-20 22:45 37.75192 -5.43065 10152 ft 288 kts 253°
2026-04-20 22:45 37.74798 -5.45544 10064 ft 288 kts 253°
2026-04-20 22:45 37.74405 -5.48018 9960 ft 287 kts 253°
2026-04-20 22:45 37.74013 -5.50490 9907 ft 287 kts 253°
2026-04-20 22:46 37.73633 -5.52965 9903 ft 289 kts 257°
2026-04-20 22:46 37.73246 -5.55679 9917 ft 338 kts 255°
2026-04-20 22:46 37.72740 -5.58754 9907 ft 377 kts 255°
2026-04-20 22:46 37.72221 -5.62094 9911 ft 407 kts 257°
2026-04-20 22:47 37.71715 -5.65613 9897 ft 404 kts 257°
2026-04-20 22:47 37.71197 -5.69066 9900 ft 396 kts 256°
2026-04-20 22:47 37.70661 -5.72444 9907 ft 399 kts 256°
2026-04-20 22:47 37.70114 -5.75833 9807 ft 391 kts 255°
2026-04-20 22:48 37.69565 -5.79210 9744 ft 396 kts 256°
2026-04-20 22:48 37.69018 -5.82576 9657 ft 387 kts 255°
2026-04-20 22:48 37.68468 -5.85895 9492 ft 385 kts 255°
2026-04-20 22:48 37.67917 -5.89195 9296 ft 384 kts 255°
2026-04-20 22:49 37.67370 -5.92484 9142 ft 382 kts 255°
2026-04-20 22:49 37.66833 -5.95723 8953 ft 381 kts 255°
2026-04-20 22:49 37.66285 -5.98993 8780 ft 380 kts 254°
2026-04-20 22:49 37.65401 -6.02117 8765 ft 378 kts 236°
2026-04-20 22:50 37.63614 -6.04504 8657 ft 377 kts 214°
2026-04-20 22:50 37.61414 -6.06319 8349 ft 380 kts 210°
2026-04-20 22:50 37.59182 -6.08096 8231 ft 378 kts 210°
2026-04-20 22:50 37.56985 -6.09905 8102 ft 376 kts 211°
2026-04-20 22:51 37.54820 -6.11735 7962 ft 375 kts 211°
2026-04-20 22:51 37.52645 -6.13545 7867 ft 374 kts 208°
2026-04-20 22:51 37.50234 -6.14589 7851 ft 374 kts 184°
2026-04-20 22:51 37.47663 -6.14224 7737 ft 376 kts 162°
2026-04-20 22:52 37.45185 -6.13133 7431 ft 379 kts 158°
2026-04-20 22:52 37.42699 -6.12032 7291 ft 379 kts 157°
2026-04-20 22:52 37.40575 -6.10166 7261 ft 361 kts 130°
2026-04-20 22:52 37.39517 -6.07582 6944 ft 315 kts 97°
2026-04-20 22:53 37.39772 -6.05026 6521 ft 283 kts 61°
2026-04-20 22:53 37.40588 -6.02892 6027 ft 259 kts 61°
2026-04-20 22:53 37.41200 -6.00842 5558 ft 243 kts 69°
2026-04-20 22:53 37.41564 -5.98872 5144 ft 224 kts 75°
2026-04-20 22:54 37.41753 -5.97048 4724 ft 198 kts 84°
2026-04-20 22:54 37.41722 -5.95398 4258 ft 181 kts 86°
2026-04-20 22:54 37.41585 -5.93882 3820 ft 172 kts 101°
2026-04-20 22:54 37.41513 -5.92427 3388 ft 163 kts 81°
2026-04-20 22:55 37.41369 -5.91038 2986 ft 164 kts 109°
2026-04-20 22:55 37.40644 -5.89948 2889 ft 163 kts 134°
2026-04-20 22:55 37.39718 -5.89143 2869 ft 162 kts 143°
2026-04-20 22:55 37.38613 -5.88774 2883 ft 169 kts 174°
2026-04-20 22:56 37.37507 -5.89219 2883 ft 173 kts 205°
2026-04-20 22:56 37.36683 -5.90319 2893 ft 173 kts 230°
2026-04-20 22:56 37.36185 -5.91689 2879 ft 173 kts 248°
2026-04-20 22:56 37.35966 -5.93167 2886 ft 170 kts 260°
2026-04-20 22:57 37.35808 -5.94635 2881 ft 169 kts 262°
2026-04-20 22:57 37.35665 -5.96099 2875 ft 169 kts 262°
2026-04-20 22:57 37.35520 -5.97567 2885 ft 169 kts 262°
2026-04-20 22:57 37.35379 -5.99029 2876 ft 169 kts 262°
2026-04-20 22:58 37.35241 -6.00474 2888 ft 168 kts 261°
2026-04-20 22:58 37.35085 -6.01931 2870 ft 168 kts 259°
2026-04-20 22:58 37.34878 -6.03380 2882 ft 168 kts 258°
2026-04-20 22:58 37.34660 -6.04829 2874 ft 169 kts 258°
2026-04-20 22:59 37.34443 -6.06276 2888 ft 169 kts 258°
2026-04-20 22:59 37.34224 -6.07722 2880 ft 168 kts 257°
2026-04-20 22:59 37.34004 -6.09166 2881 ft 168 kts 257°
2026-04-20 22:59 37.33851 -6.10625 2735 ft 169 kts 268°
2026-04-20 23:00 37.34035 -6.12063 2601 ft 172 kts 293°
2026-04-20 23:00 37.34746 -6.13238 2486 ft 170 kts 321°
2026-04-20 23:00 37.35811 -6.13834 2484 ft 167 kts 354°
2026-04-20 23:00 37.36957 -6.13852 2476 ft 164 kts 13°
2026-04-20 23:01 37.37954 -6.13223 2480 ft 159 kts 39°
2026-04-20 23:01 37.38622 -6.12147 2491 ft 156 kts 69°
2026-04-20 23:01 37.38950 -6.10864 2490 ft 154 kts 78°
2026-04-20 23:01 37.39221 -6.09561 2486 ft 155 kts 77°
2026-04-20 23:02 37.39500 -6.08259 2474 ft 155 kts 76°
2026-04-20 23:02 37.39766 -6.06960 2484 ft 156 kts 76°
2026-04-20 23:02 37.40202 -6.05707 2487 ft 157 kts 61°
2026-04-20 23:02 37.40749 -6.04516 2490 ft 157 kts 63°
2026-04-20 23:03 37.41163 -6.03252 2471 ft 156 kts 74°
2026-04-20 23:03 37.41419 -6.01925 2369 ft 155 kts 80°
2026-04-20 23:03 37.41571 -6.00585 2076 ft 155 kts 84°
2026-04-20 23:03 37.41655 -5.99249 1747 ft 150 kts 87°
2026-04-20 23:04 37.41703 -5.97957 1405 ft 147 kts 88°
2026-04-20 23:04 37.41732 -5.96699 1063 ft 144 kts 89°
2026-04-20 23:04 37.41749 -5.95456 754 ft 139 kts 89°
2026-04-20 23:04 37.41762 -5.94280 678 ft 133 kts 90°
2026-04-20 23:05 37.41772 -5.93110 679 ft 134 kts 90°
2026-04-20 23:05 37.41779 -5.91936 680 ft 134 kts 91°
2026-04-20 23:05 37.41786 -5.90822 354 ft 132 kts 85°
2026-04-20 23:05 37.41800 -5.89660 104 ft 114 kts 91°
2026-04-20 23:06 37.41802 -5.89025 109 ft 41 kts 91°
2026-04-20 23:06 37.41847 -5.88796 109 ft 18 kts 30°
2026-04-20 23:06 37.41863 -5.88788 110 ft 0 kts 21°
2026-04-20 23:07 37.41868 -5.88785 110 ft 6 kts 20°
2026-04-20 23:07 37.41940 -5.88770 106 ft 13 kts 349°
2026-04-20 23:07 37.41968 -5.88871 106 ft 16 kts 248°
2026-04-20 23:07 37.41964 -5.88978 106 ft 13 kts 276°
2026-04-20 23:08 37.41983 -5.89180 106 ft 35 kts 279°
2026-04-20 23:08 37.42025 -5.89405 106 ft 21 kts 306°
2026-04-20 23:08 37.42118 -5.89536 104 ft 20 kts 313°
2026-04-20 23:08 37.42209 -5.89657 105 ft 18 kts 314°
2026-04-20 23:09 37.42301 -5.89748 104 ft 17 kts 322°
2026-04-20 23:09 37.42335 -5.89786 103 ft 0 kts 317°